Tracking 29892 objects as of 21-Nov-2024
HD Live streaming from Space Station
objects crossing your sky now

FENGYUN 1C DEB

Track FENGYUN 1C DEB now!
10-day predictions


NORAD ID: 30245
Int'l Code: 1999-025XE
Perigee: 835.5 km
Apogee: 1,123.6 km
Inclination: 98.9 °
Period: 104.5 minutes
Semi major axis: 7350 km
RCS: 0.0424 m2 (small)
Launch date: May 10, 1999
Source: People's Republic of China (PRC)
Launch site: Taiyaun Space Center, China (TSC)

Note: This is SATELLITE DEBRIS
Your satellite tracking list
Your tracking list is empty




NASA's NSSDC Master Catalog

Two Line Element Set (TLE):
1 30245U 99025XE  24324.98973853  .00001956  00000-0  17371-2 0  9998
2 30245  98.8751 331.1016 0196014 208.4185 150.6166 13.77595097893523
Source of the keplerian elements: AFSPC